This demonstration page uses our WeatherBlox Daily Observations layout. Learn more.

36.17497, -115.13722

Hourly Observations for April 10, 2015

Temp ( °F °C ) Dew Point ( °F °C ) Humidity (%) Winds ( mph kmh ) Pressure ( in mb ) Visibility ( mi km ) Precip ( " mm )
12:53 am 00:53 Clear 57 13.9 15 -9.4 19 19 NW 8 13 29.94 1014 10 16.0934 0 0
1:53 am 01:53 Clear 56 13.3 18 -7.8 22 22 WNW 7 11 29.93 1014 10 16.0934 0 0
2:53 am 02:53 Clear 54 12.2 20 -6.7 26 26 SW 5 7 29.94 1014 10 16.0934 0 0
3:53 am 03:53 Clear 53 11.7 20 -6.7 27 27 WSW 3 6 29.94 1014 10 16.0934 0 0
4:53 am 04:53 Clear 52 11.1 19 -7.2 27 27 WNW 3 6 29.95 1014 10 16.0934 0 0
5:53 am 05:53 Clear 52 11.1 19 -7.2 27 27 NNW 7 11 29.96 1015 10 16.0934 0 0
6:53 am 06:53 Sunny 53 11.7 17 -8.3 24 24 NNW 6 9 29.98 1015 10 16.0934 0 0
7:53 am 07:53 Sunny 57 13.9 18 -7.8 22 22 NW 3 6 29.99 1016 10 16.0934 0 0
8:53 am 08:53 Sunny 63 17.2 14 -10 15 15 N 6 9 30 1016 10 16.0934 0 0
9:53 am 09:53 Sunny 65 18.3 11 -11.7 12 12 Calm 30.01 1016 10 16.0934 0 0
10:53 am 10:53 Sunny 68 20 11 -11.7 11 11 E 5 7 30.01 1016 10 16.0934 0 0
11:53 am 11:53 Sunny 71 21.7 8 -13.3 8 8 SE 5 7 30 1016 10 16.0934 0 0
12:53 pm 12:53 Sunny 73 22.8 6 -14.4 7 7 S 8 13 29.98 1015 10 16.0934 0 0
1:53 pm 13:53 Sunny 73 22.8 7 -13.9 7 7 SE 7 11 29.95 1014 10 16.0934 0 0
2:53 pm 14:53 Sunny 76 24.4 7 -13.9 7 7 SSE 9 15 29.93 1013 10 16.0934 0 0
3:53 pm 15:53 Sunny 75 23.9 7 -13.9 7 7 SSE 8 13 29.91 1013 10 16.0934 0 0
4:53 pm 16:53 Sunny 74 23.3 7 -13.9 7 7 ESE 10 17 29.89 1012 10 16.0934 0 0
5:53 pm 17:53 Sunny 74 23.3 7 -13.9 7 7 ESE 7 11 29.88 1012 10 16.0934 0 0
6:53 pm 18:53 Sunny 73 22.8 6 -14.4 7 7 SE 10 17 29.88 1012 10 16.0934 0 0
7:53 pm 19:53 Clear 70 21.1 7 -13.9 8 8 ESE 6 9 29.89 1012 10 16.0934 0 0
8:53 pm 20:53 Clear 68 20 7 -13.9 9 9 ESE 6 9 29.91 1013 10 16.0934 0 0
9:53 pm 21:53 Clear 67 19.4 11 -11.7 11 11 Calm 29.91 1013 10 16.0934 0 0
10:53 pm 22:53 Clear 64 17.8 17 -8.3 16 16 WNW 5 7 29.91 1013 10 16.0934 0 0
11:53 pm 23:53 Clear 60 15.6 16 -8.9 18 18 NNW 5 7 29.91 1013 10 16.0934 0 0

Powered by AerisWeather